sat.trackr.live / text

‹ back to catalog

STARLINK-5906

NORAD 55962 · 2023-037BA

PAYLOAD ACTIVE UNKNOWN

§ Identity

Operator
Country
US
Launch date
2023-03-17
Launch site
AFWTR
Launch vehicle
Mass (kg)
RCS (m²)

Purposes: comms

External: N2YO · Heavens-Above · Gunter

§ Orbital elements

Epoch: 2026-05-25T02:08:19.320864Z

Period
96.11 min
Inclination
70.0003°
Eccentricity
0.0002834
Mean motion
14.98331231 rev/d
Perigee alt
570.1 km
Apogee alt
574.0 km
Semi-major
6,950.2 km
B*
2.7534e-5
RAAN
71.9609°
Arg perigee
270.0881°
Mean anomaly
89.9954°
Rev number
17,591

§ Raw data

STARLINK-59061 55962U 23037BA  26145.08911251  .00000236  00000+0  27534-4 0  99922 55962  70.0003  71.9609 0002834 270.0881  89.9954 14.98331231175916

JSON: /api/v1/satellites/55962 · /tle

For live sub-satellite position, see the globe view (requires WebGL).

§ Visibility from observer

Set your observer location to see the next 7 days of passes ≥ 10°. The values pass through the URL so the page stays shareable.

No JS? Fill the form by hand. The geolocation button needs JavaScript.